Regional Weather Roundup
Issued by NWS

Home | Current Version | Previous Version | Graphics & Text | Print | Product List | Glossary On
Versions: 1 2 3 4 5 6 7 8 9 10 11 12 13 14 15 16 17 18 19 20 21 22 23 24 25 26 27 28 29 30 31 32 33 34 35 36 37 38 39 40 41 42 43 44 45 46 47 48 49 50
000
ASUS43 KLSX 281007
RWRMO
STLRWRMO ALL

WEATHER SUMMARY FOR MISSOURI
NATIONAL WEATHER SERVICE SPRINGFIELD MO
500 AM CDT FRI APR 28 2017

NOTE: "FAIR" INDICATES FEW OR NO CLOUDS BELOW 12,000 FEET WITH NO
       SIGNIFICANT WEATHER AND/OR OBSTRUCTIONS TO VISIBILITY.
       CURRENT SKY AND/OR WEATHER CONDITIONS ARE NOT AVAILABLE FOR
       CHILLICOTHE AND FARMINGTON.

MOZ001>031-035>038-043-044-053-054-281100-
...NORTHERN AND WESTERN MISSOURI...

CITY           SKY/WX    TMP DP  RH WIND       PRES   REMARKS
KANSAS CTY INT CLOUDY    50  48  93 E12       29.69F
KANSAS C DTWN  CLOUDY    53  49  86 E10       29.69F
LEE`S SUMMIT   LGT RAIN  51  50  96 E8        29.71S
ST JOSEPH      LGT RAIN  50  48  93 E10       29.72F
CHILLICOTHE      N/A     52  48  86 CALM      29.78S
KIRKSVILLE     MOCLDY    48  46  93 NE7       29.80F

$$
MOZ066>068-077>081-088>096-101>105-281100-
...SOUTHWEST MISSOURI...

CITY           SKY/WX    TMP DP  RH WIND       PRES   REMARKS
SPRINGFIELD    RAIN      56  53  90 S25       29.70S
JOPLIN         LGT RAIN  59  54  83 SE14      29.63F
BRANSON        CLOUDY    54  50  87 SE16      29.76F

$$
MOZ032>034-039>042-045>050-055>058-069>072-281100-
...CENTRAL MISSOURI...

CITY           SKY/WX    TMP DP  RH WIND       PRES   REMARKS
COLUMBIA       CLOUDY    52  49  89 E8        29.77S
JEFFERSON CITY CLOUDY    56  49  77 E8        29.76S
ROLLA          CLOUDY    53  51  93 SE9       29.76F
SEDALIA        LGT RAIN  52  51  97 E12       29.73F
WHITEMAN AFB   LGT RAIN  51  51 100 SE8       29.69F
OSAGE BEACH    CLOUDY    55  51  86 E6        29.74S

$$
MOZ051-052-059>065-281100-
...EAST CENTRAL MISSOURI...

CITY           SKY/WX    TMP DP  RH WIND       PRES   REMARKS
ST LOUIS INTL  LGT RAIN  56  50  80 NE7       29.82F
SPIRIT OF STL  CLOUDY    54  52  93 CALM      29.83R
ST CHARLES     LGT RAIN  54  52  93 NE7       29.81F

$$
MOZ072>076-082>087-097>100-106>115-281100-
...SOUTH CENTRAL AND SOUTHEAST MISSOURI...

CITY           SKY/WX    TMP DP  RH WIND       PRES   REMARKS
CAPE GIRARDEAU CLOUDY    55  50  83 E3        29.87R
FARMINGTON     LGT RAIN  54  50  86 VRB5      29.84R
POPLAR BLUFF   CLOUDY    56  54  93 N5        29.85R
WEST PLAINS    CLOUDY    54  51  90 E5        29.83F

$$




USA.gov is the U.S. government's official web portal to all federal, state and local government web resources and services.